Terug naar catalogus

MARISAT 2

ActiefCommunicatieMEO
NORAD 9478·PAYLOAD·🇺🇸 United States

Gelanceerd Oct 14, 1976 vanaf Cape Canaveral Space Force Station

Loading…

Volgende Passages (komende 24 uur)

TLE

VersSource: Space-Track

Epoch: Sep 14, 2026, 11:50 UTC

1 09478U 76101A   26257.49314855 -.00000222  00000-0  00000-0 0  9991
2 09478   5.6664 310.5212 0103927 351.1064 175.3622  0.97591450124231

Volg MARISAT 2 in realtime met AllMySat

Download on the App Store